Location: Bidwell Hollow
(37.7387°N, 90.1707°W)
Time: 23:22:59
(UTC+00:00)

Transit 2A - Pass Details

Date: 18 May 2026
Orbit: 595 x 949 km, 66.7° (Epoch: 6 June)

Event Time Altitude Azimuth Distance (km) Brightness Sun altitude
Rises 05:34:23 0° 338° (NNW) 3,136 10.2 -32.5°
Reaches altitude 10° 05:36:58 10° 345° (NNW) 2,154 9.2 -32.5°
Enters shadow 05:40:02 31° 14° (NNE) 1,159 7.4 -32.6°
